Location: Misciano
(43.5000°N, 11.9500°E)
Time: 08:21:20
(UTC+00:00)

Resurs 1-3 - Pass Details

Date: 13 August 2020
Orbit: 629 x 632 km, 97.9° (Epoch: 25 September)

Event Time Altitude Azimuth Distance (km) Brightness Sun altitude
Exits shadow 18:41:02 - 137° (SE) 2,569 6.1 -4.7°
Reaches altitude 10° 18:42:32 10° 130° (SE) 2,008 5.6 -4.9°
Maximum altitude 18:46:22 31° 68° (ENE) 1,115 4.5 -5.6°
Drops below altitude 10° 18:50:14 10° 7° (N) 2,024 6.5 -6.2°
Sets 18:52:38 0° 357° (N) 2,938 7.5 -6.6°
